Вернуться в каталог

STARLINK-34732

АктивенСвязьSSO
NORAD 64955·PAYLOAD·🇺🇸 United States

Запущен Jul 26, 2025 с Vandenberg Space Force Base

Loading…

Ближайшие Пролёты (ближайшие 24 часа)

TLE

СвежийSource: CelesTrak SupGP

Эпоха: Sep 15, 2026, 03:42 UTC

1 64955C 25158Z   26258.15465278 -.00082899  00000+0 -25721-2 0  2585
2 64955  97.2848 116.4731 0001958  90.2879 231.8030 15.33496693    17

Отслеживайте STARLINK-34732 в реальном времени с AllMySat

Download on the App Store